Location: Chircca
(13.7944°S, 72.0608°W)
Time: 06:16:46
(UTC+00:00)

H-2A R/B - Pass Details

Date: 14 July 2020
Orbit: 500 x 542 km, 97.3° (Epoch: 17 June)

Event Time Altitude Azimuth Distance (km) Brightness Sun altitude
Rises 10:26:21 0° 0° (N) 2,668 6.6 -11.4°
Reaches altitude 10° 10:28:30 10° 355° (N) 1,788 5.6 -10.9°
Maximum altitude 10:32:14 47° 280° (W) 723 3.1 -10.0°
Drops below altitude 10° 10:36:02 10° 205° (SSW) 1,814 5.0 -9.2°
Sets 10:38:13 0° 199° (SSW) 2,712 6.0 -8.7°
